Flight Track Log - Related Links

Times and Time Zones

All times are in EDT time to prevent confusion due to time zone crossing. See the N711FG flight status page for this flight to view local times or setup timezone preferences in your user account.

Time Position Orientation Groundspeed Altitude Reporting Facility
EDT Latitude Longitude Course Direction KTS MPH feet Rate Location/Type
05:36PM 36.0667 -86.7500 272° West 266 306 3,600  Level Nashville TRACON
05:36PM 36.0683 -86.8158 272° West 311 358 4,600 1,630 Climbing Memphis Center
05:37PM 36.1242 -86.8725 321° Northwest 306 352 6,100 2,050 Climbing Memphis Center
05:38PM 36.2019 -86.8950 347° North 307 353 8,700 2,450 Climbing Memphis Center
05:39PM 36.2822 -86.8556 22° Northeast 291 335 11,000 2,150 Climbing Memphis Center
05:40PM 36.3594 -86.7903 34° Northeast 311 358 13,000 992 Climbing Memphis Center
05:41PM 36.4428 -86.7169 35° Northeast 347 399 13,000  Level Memphis Center
05:42PM 36.5342 -86.6381 35° Northeast 382 440 13,000  Level Memphis Center
05:43PM 36.6236 -86.5617 34° Northeast 395 455 13,000  Level Memphis Center
05:44PM 36.7131 -86.4850 34° Northeast 390 449 13,000  Level Memphis Center
05:45PM 36.8003 -86.4081 35° Northeast 390 449 13,000  Level Memphis Center
05:47PM 36.9786 -86.2531 35° Northeast 390 449 13,000 -33 Level Indianapolis Center
05:48PM 37.0686 -86.1750 35° Northeast 389 448 12,900 -290 Descending Indianapolis Center
05:50PM 37.1583 -86.0975 35° Northeast 390 449 12,400 -532 Descending Indianapolis Center
05:51PM 37.2475 -86.0186 35° Northeast 389 448 11,800 -528 Descending Indianapolis Center
05:52PM 37.3342 -85.9411 35° Northeast 380 437 11,300 -480 Descending Indianapolis Center
05:53PM 37.4206 -85.8656 35° Northeast 376 433 10,800 -581 Descending Indianapolis Center
05:54PM 37.5156 -85.7842 34° Northeast 371 427 10,100 -435 Descending Indianapolis Center
05:55PM 37.6028 -85.7167 32° Northeast 369 425 9,900 -435 Descending Indianapolis Center
05:56PM 37.6911 -85.6672 24° Northeast 350 403 9,200 -532 Descending Indianapolis Center
05:57PM 37.7697 -85.6197 26° Northeast 320 368 8,800 -290 Descending Indianapolis Center
05:58PM 37.8511 -85.5700 26° Northeast 270 311 8,600 -435 Descending Indianapolis Center
05:59PM 37.9136 -85.5353 24° Northeast 249 287 7,900 -629 Descending Indianapolis Center
06:00PM 37.9772 -85.5003 23° Northeast 248 285 7,300 -387 Descending Indianapolis Center
06:01PM 38.0406 -85.5214 345° North 241 277 7,100 -339 Descending Indianapolis Center
06:02PM 38.1056 -85.5511 340° North 243 280 6,600 -484 Descending Indianapolis Center
06:03PM 38.1689 -85.5833 338° Northwest 246 283 6,100 -484 Descending Indianapolis Center
06:04PM 38.2303 -85.6131 339° North 243 280 5,600 -774 Descending Indianapolis Center
06:05PM 38.3000 -85.6494 338° Northwest 235 270 4,500 -726 Descending Indianapolis Center
06:06PM 38.3506 -85.6900 328° Northwest 236 272 4,100 -242 Descending Indianapolis Center
06:07PM 38.3361 -85.7536 254° West 215 247 4,000 -339 Descending Indianapolis Center
06:08PM 38.2814 -85.7678 191° South 200 230 3,400 -629 Descending Indianapolis Center
06:09PM 38.2414 -85.7469 158° South 196 226 2,700 -677 Descending Indianapolis Center

Login

Don't have an account? Register now (free) for customized features, flight alerts, and more!